�����͌���@�Y���u�C�̈ړ��ʁi�������j,,,,,,,,,,,,
�@,Time,Time int.,,Lat.,,Long.,,Distance,,Direction,Speed,
Date(yyyy/mm/dd),(hh:mm),(hour),(min),(deg),(min),(deg),(min),(miles),(meter),(deg),(m/s),(knots)
2006/2/22,9:00,0,,36,47.7,137,4.14,,,,,
2006/2/22,9:05,0,5,36,47.736,137,4.194,0.06,104.33,50.4,0.35,0.68
2006/2/22,9:10,0,5,36,47.796,137,4.188,0.06,111.33,355.46,0.37,0.72
2006/2/22,9:15,0,5,36,47.814,137,4.23,0.04,70.79,62,0.24,0.46
2006/2/22,9:20,0,5,36,47.85,137,4.248,0.04,71.77,21.96,0.24,0.47
2006/2/22,9:25,0,5,36,47.856,137,4.272,0.02,37.38,72.79,0.12,0.24
2006/2/22,9:30,0,5,36,47.868,137,4.296,0.02,42.04,58.19,0.14,0.27
2006/2/22,9:35,0,5,36,47.886,137,4.314,0.02,42.72,38.86,0.14,0.28
2006/2/22,9:40,0,5,36,47.904,137,4.326,0.02,37.78,28.25,0.13,0.24
2006/2/22,9:45,0,5,36,47.91,137,4.356,0.02,45.98,76.09,0.15,0.3
2006/2/22,9:50,0,5,36,47.916,137,4.386,0.02,45.98,76.09,0.15,0.3
2006/2/22,9:55,0,5,36,47.928,137,4.404,0.02,34.78,50.4,0.12,0.23
2006/2/22,10:00,0,5,36,47.94,137,4.428,0.02,42.04,58.19,0.14,0.27
2006/2/22,10:05,0,5,36,47.952,137,4.446,0.02,34.78,50.4,0.12,0.23
2006/2/22,10:10,0,5,36,47.94,137,4.482,0.03,57.96,112.57,0.19,0.38
2006/2/22,10:15,0,5,36,47.964,137,4.518,0.04,69.55,50.4,0.23,0.45
2006/2/22,10:20,0,5,36,47.976,137,4.542,0.02,42.04,58.18,0.14,0.27
2006/2/22,10:25,0,5,36,47.988,137,4.578,0.03,57.96,67.54,0.19,0.38
2006/2/22,10:30,0,5,36,47.976,137,4.614,0.03,57.96,112.57,0.19,0.38
2006/2/22,10:35,0,5,36,47.982,137,4.638,0.02,37.38,72.78,0.12,0.24
2006/2/22,10:40,0,5,36,47.982,137,4.662,0.02,35.7,90.05,0.12,0.23
2006/2/22,10:45,0,5,36,47.994,137,4.698,0.03,57.96,67.54,0.19,0.38
2006/2/22,10:50,0,5,36,47.97,137,4.716,0.03,51.84,148.96,0.17,0.34
2006/2/22,10:55,0,5,36,47.988,137,4.746,0.03,55.67,53.33,0.19,0.36
2006/2/22,11:00,0,5,36,47.988,137,4.776,0.02,44.62,90.05,0.15,0.29
2006/2/22,11:05,0,5,36,47.994,137,4.788,0.01,21.02,58.18,0.07,0.14
2006/2/22,11:10,0,5,36,47.976,137,4.8,0.02,37.78,151.85,0.13,0.24
2006/2/22,11:15,0,5,36,47.982,137,4.818,0.02,28.98,67.54,0.1,0.19


�A,Time,Time int.,,Lat.,,Long.,,Distance,,Direction,Speed,
Date(yyyy/mm/dd),(hh:mm),(hour),(min),(deg),(min),(deg),(min),(miles),(meter),(deg),(m/s),(knots)
2006/2/22,11:35,0,,36,47.628,137,4.194,,,,,
2006/2/22,11:40,0,5,36,47.622,137,4.242,0.04,72.26,98.89,0.24,0.47
2006/2/22,11:45,0,5,36,47.616,137,4.26,0.02,28.98,112.57,0.1,0.19
2006/2/22,11:50,0,5,36,47.604,137,4.308,0.04,74.77,107.32,0.25,0.48
2006/2/22,11:55,0,5,36,47.604,137,4.332,0.02,35.7,90.06,0.12,0.23
2006/2/22,12:00,0,5,36,47.58,137,4.374,0.04,76.64,125.45,0.26,0.5
2006/2/22,12:05,0,5,36,47.58,137,4.41,0.03,53.55,90.06,0.18,0.35
2006/2/22,12:10,0,5,36,47.574,137,4.434,0.02,37.39,107.32,0.12,0.24
2006/2/22,12:15,0,5,36,47.574,137,4.47,0.03,53.55,90.06,0.18,0.35
2006/2/22,12:20,0,5,36,47.568,137,4.494,0.02,37.39,107.32,0.12,0.24
2006/2/22,12:25,0,5,36,47.568,137,4.53,0.03,53.55,90.05,0.18,0.35
2006/2/22,12:30,0,5,36,47.562,137,4.56,0.02,45.99,104.02,0.15,0.3
2006/2/22,12:35,0,5,36,47.568,137,4.608,0.04,72.26,81.22,0.24,0.47
2006/2/22,12:40,0,5,36,47.568,137,4.626,0.01,26.78,90.05,0.09,0.17
2006/2/22,12:45,0,5,36,47.568,137,4.668,0.03,62.48,90.05,0.21,0.4
2006/2/22,12:50,0,5,36,47.598,137,4.716,0.05,90.43,52.2,0.3,0.59
2006/2/22,12:55,0,5,36,47.592,137,4.746,0.02,45.99,104.02,0.15,0.3
2006/2/22,13:00,0,5,36,47.592,137,4.806,0.05,89.25,90.05,0.3,0.58
2006/2/22,13:05,0,5,36,47.604,137,4.842,0.03,57.97,67.54,0.19,0.38
2006/2/22,13:10,0,5,36,47.622,137,4.872,0.03,55.68,53.33,0.19,0.36
2006/2/22,13:15,0,5,36,47.634,137,4.902,0.03,49.84,63.61,0.17,0.32
2006/2/22,13:20,0,5,36,47.64,137,4.938,0.03,54.69,78.34,0.18,0.35
2006/2/22,13:25,0,5,36,47.67,137,4.998,0.06,105.09,58.18,0.35,0.68
2006/2/22,13:30,0,5,36,47.694,137,5.064,0.06,107.74,65.72,0.36,0.7
2006/2/22,13:35,0,5,36,47.712,137,5.094,0.03,55.68,53.32,0.19,0.36
2006/2/22,13:40,0,5,36,47.736,137,5.136,0.04,76.64,54.65,0.26,0.5
2006/2/22,13:45,0,5,36,47.742,137,5.154,0.02,28.98,67.54,0.1,0.19
2006/2/22,13:50,0,5,36,47.778,137,5.208,0.06,104.33,50.39,0.35,0.68
2006/2/22,13:55,0,5,36,47.772,137,5.226,0.02,28.98,112.56,0.1,0.19
2006/2/22,14:00,0,5,36,47.814,137,5.286,0.06,118.32,49.01,0.39,0.77
2006/2/22,14:05,0,5,36,47.82,137,5.322,0.03,54.69,78.34,0.18,0.35
2006/2/22,14:10,0,5,36,47.838,137,5.37,0.04,78.78,65.05,0.26,0.51
2006/2/22,14:15,0,5,36,47.856,137,5.412,0.04,70.79,61.99,0.24,0.46


�B,Time,Time int.,,Lat.,,Long.,,Distance,,Direction,Speed,
Date(yyyy/mm/dd),(hh:mm),(hour),(min),(deg),(min),(deg),(min),(miles),(meter),(deg),(m/s),(knots)
2006/2/22,9:05,0,,36,47.598,137,4.2,,,,,
2006/2/22,9:15,0,5,36,47.634,137,4.302,0.09,165.7,66.36,0.55,1.07
2006/2/22,9:20,0,5,36,47.592,137,4.326,0.05,85.49,155.37,0.28,0.55
2006/2/22,9:25,0,5,36,47.61,137,4.356,0.03,55.68,53.33,0.19,0.36
2006/2/22,9:30,0,5,36,47.592,137,4.374,0.02,42.72,141.25,0.14,0.28
2006/2/22,9:35,0,5,36,47.592,137,4.416,0.03,62.48,90.06,0.21,0.4
2006/2/22,9:40,0,5,36,47.586,137,4.44,0.02,37.39,107.32,0.12,0.24
2006/2/22,9:45,0,5,36,47.574,137,4.476,0.03,57.97,112.57,0.19,0.38
2006/2/22,9:50,0,5,36,47.568,137,4.5,0.02,37.39,107.32,0.12,0.24
2006/2/22,9:55,0,5,36,47.55,137,4.536,0.03,63.06,121.92,0.21,0.41
2006/2/22,10:00,0,5,36,47.526,137,4.572,0.04,69.56,129.71,0.23,0.45
2006/2/22,10:05,0,5,36,47.544,137,4.602,0.03,55.68,53.33,0.19,0.36
2006/2/22,10:10,0,5,36,47.514,137,4.656,0.05,97.63,124.69,0.33,0.63
2006/2/22,10:20,0,10,36,47.52,137,4.704,0.04,72.26,81.22,0.12,0.23
2006/2/22,10:25,0,5,36,47.52,137,4.722,0.01,26.78,90.05,0.09,0.17
2006/2/22,10:30,0,5,36,47.526,137,4.746,0.02,37.39,72.79,0.12,0.24
2006/2/22,10:45,0,15,36,47.544,137,4.77,0.03,48.82,47.05,0.05,0.11
2006/2/22,10:50,0,5,36,47.526,137,4.848,0.07,120.71,106.06,0.4,0.78
2006/2/22,10:55,0,5,36,47.532,137,4.902,0.04,81.09,82.19,0.27,0.53
2006/2/22,11:00,0,5,36,47.538,137,4.914,0.01,21.02,58.18,0.07,0.14
2006/2/22,11:05,0,5,36,47.526,137,4.956,0.04,66.3,109.61,0.22,0.43
2006/2/22,11:10,0,5,36,47.514,137,4.986,0.03,49.84,116.49,0.17,0.32
2006/2/22,11:15,0,5,36,47.532,137,5.016,0.03,55.68,53.33,0.19,0.36
2006/2/22,11:20,0,5,36,47.508,137,5.052,0.04,69.56,129.7,0.23,0.45


�C,Time,Time int.,,Lat.,,Long.,,Distance,,Direction,Speed,
Date(yyyy/mm/dd),(hh:mm),(hour),(min),(deg),(min),(deg),(min),(miles),(meter),(deg),(m/s),(knots)
2006/2/22,11:35,0,,36,47.658,137,4.176,,,,,
2006/2/22,11:40,0,5,36,47.67,137,4.236,0.05,91.97,76.09,0.31,0.6
2006/2/22,11:45,0,5,36,47.694,137,4.272,0.04,69.56,50.4,0.23,0.45
2006/2/22,11:50,0,5,36,47.676,137,4.296,0.03,48.81,133.06,0.16,0.32
2006/2/22,11:55,0,5,36,47.64,137,4.338,0.05,91.31,136.88,0.3,0.59
2006/2/22,12:00,0,5,36,47.64,137,4.362,0.02,35.7,90.06,0.12,0.23
2006/2/22,12:05,0,5,36,47.622,137,4.374,0.02,37.78,151.86,0.13,0.24
2006/2/22,12:10,0,5,36,47.628,137,4.41,0.03,54.69,78.35,0.18,0.35
2006/2/22,12:15,0,5,36,47.616,137,4.422,0.02,28.48,141.25,0.09,0.18
2006/2/22,12:20,0,5,36,47.604,137,4.452,0.03,49.84,116.5,0.17,0.32
2006/2/22,12:25,0,5,36,47.586,137,4.464,0.02,37.78,151.86,0.13,0.24
2006/2/22,12:30,0,5,36,47.568,137,4.488,0.03,48.82,133.06,0.16,0.32
2006/2/22,12:35,0,5,36,47.556,137,4.518,0.03,49.84,116.5,0.17,0.32
2006/2/22,12:40,0,5,36,47.55,137,4.518,0.01,11.1,180.05,0.04,0.07
2006/2/22,12:45,0,5,36,47.556,137,4.584,0.05,98.8,83.61,0.33,0.64
2006/2/22,12:50,0,5,36,47.556,137,4.638,0.04,80.33,90.05,0.27,0.52
2006/2/22,12:55,0,5,36,47.544,137,4.632,0.01,23.92,201.96,0.08,0.16
2006/2/22,13:00,0,5,36,47.562,137,4.638,0.02,34.47,15.06,0.11,0.22
2006/2/22,13:05,0,5,36,47.58,137,4.65,0.02,37.78,28.25,0.13,0.24
2006/2/22,13:10,0,5,36,47.58,137,4.668,0.01,26.78,90.05,0.09,0.17
2006/2/22,13:15,0,5,36,47.574,137,4.686,0.02,28.98,112.57,0.1,0.19
2006/2/22,13:20,0,5,36,47.598,137,4.746,0.05,99.68,63.61,0.33,0.65
2006/2/22,13:25,0,5,36,47.604,137,4.8,0.04,81.09,82.19,0.27,0.53
2006/2/22,13:30,0,5,36,47.61,137,4.806,0.01,14.24,38.86,0.05,0.09
2006/2/22,13:35,0,5,36,47.634,137,4.866,0.05,99.68,63.61,0.33,0.65
2006/2/22,13:40,0,5,36,47.652,137,4.872,0.02,34.47,15.06,0.11,0.22
2006/2/22,13:45,0,5,36,47.652,137,4.926,0.04,80.33,90.05,0.27,0.52
2006/2/22,13:50,0,5,36,47.682,137,4.968,0.05,83.56,48.44,0.28,0.54
2006/2/22,13:55,0,5,36,47.7,137,4.986,0.02,42.72,38.86,0.14,0.28
2006/2/22,14:05,0,5,36,47.73,137,4.98,0.03,56.2,350.91,0.19,0.36
2006/2/22,14:10,0,5,36,47.742,137,5.07,0.07,135.7,80.64,0.45,0.88
2006/2/22,14:15,0,5,36,47.754,137,5.106,0.03,57.97,67.54,0.19,0.38
2006/2/22,14:20,0,5,36,47.766,137,5.16,0.04,83.33,74.6,0.28,0.54
